Location: Mountain Grove
(34.0887°N, 86.6172°W)
Time: 21:20:28
(UTC+00:00)

Cosmos 2278 Rocket - Pass Details

Date: 14 July 2020
Orbit: 841 x 845 km, 71.0° (Epoch: 08 August)

Event Time Altitude Azimuth Distance (km) Brightness Sun altitude
Rises 01:55:54 0° 351° (N) 3,407 6.1 -10.9°
Reaches altitude 10° 01:58:45 10° 3° (N) 2,468 5.1 -11.3°
Maximum altitude 02:03:30 27° 61° (ENE) 1,566 3.4 -12.1°
Enters shadow 02:06:55 16° 108° (ESE) 2,080 3.7 -12.7°
